Regional Weather Roundup
Issued by NWS

Home | Current Version | Previous Version | Text Only | Print | Product List | Glossary Off
Versions: 1 2 3 4 5 6 7 8 9 10 11 12 13 14 15 16 17 18 19 20 21 22 23 24 25 26 27 28 29 30 31 32 33 34 35 36 37 38 39 40 41 42 43 44 45 46 47 48 49 50

000
ASUS43 KLOT 260708
RWRIL

ILLINOIS REGIONAL WEATHER ROUNDUP
NATIONAL WEATHER SERVICE CHICAGO/ROMEOVILLE IL
200 AM CDT SUN MAR 26 2017

NOTE: "FAIR" INDICATES FEW OR NO CLOUDS BELOW 12,000 FEET WITH NO
SIGNIFICANT WEATHER AND/OR OBSTRUCTIONS TO VISIBILITY.

* THESE STATIONS ARE NOT UNDER NWS QUALITY CONTROL. THEY ALSO MAY NOT
  REPORT WEATHER SUCH AS PRECIPITATION OR FOG.

ILZ001-002-007-009-015-016-024-260800-
NORTHWEST ILLINOIS

CITY           SKY/WX    TMP DP  RH WIND       PRES   REMARKS
MOLINE         LGT RAIN  48  46  93 E7        29.82F FOG
STERLING*      CLOUDY    48  47  96 E13       29.85F FOG
SAVANNA*       CLOUDY    44  43  97 NE10      29.87F
$$

ILZ003-004-008-010-011-017-018-260800-
NORTH CENTRAL ILLINOIS

CITY           SKY/WX    TMP DP  RH WIND       PRES   REMARKS
ROCKFORD       CLOUDY    47  44  90 E8        29.91F FOG
FREEPORT*      CLOUDY    42  42  99 E10       29.90F FOG
ROCHELLE*      CLOUDY    48  47  99 E9        29.88F FOG
DE KALB*       CLOUDY    47  46  99 E13       29.89F FOG
PERU*          FOG       51  50  97 E9        29.86S VSB 1/4
$$

ILZ005-006-012>014-019>023-260800-
NORTHEAST ILLINOIS

CITY           SKY/WX    TMP DP  RH WIND       PRES   REMARKS
CHICAGO-OHARE  CLOUDY    47  45  93 NE8       29.91F FOG
CHICAGO-MIDWAY CLOUDY    49  48  97 VRB6      29.91F FOG
AURORA         CLOUDY    49  47  93 NE9       29.89F FOG
LANSING*       CLOUDY    51  51 100 E10       29.91F
JOLIET*        CLOUDY    53  52  99 E6        29.89F FOG
WAUKEGAN       FOG       41  41 100 NE8       29.93F VSB 1/2
DUPAGE AIRPORT CLOUDY    47  47 100 NE7       29.89F FOG
KANKAKEE*      MOCLDY    55  54  97 E9        29.89F
WHEELING       CLOUDY    43  43 100 NE5       29.93F FOG
MORRIS*        CLOUDY    52  51  96 E7        29.87F FOG
ROMEOVILLE*    MOCLDY    50  50 100 E8        29.89F FOG
$$

LMZ740>746-260800-
SOUTHERN LAKE MICHIGAN

STATION/POSITION SKY/WX   TEMP    WIND        PRES    VSBY  WAVE
                          AIR SEA DIR/SP/G                  HT/PER
                          (F)     (DEG/KT/KT) (MB)    (MI)  (FT/S)
HARRISON CRIB              43      90/  7/  7   N/A
BURNHAM HARBOR             43      20/  4/  6   N/A
CALUMET HARBOR             44      80/  6/  8 1012.5F
BURNS HARBOR               51     110/ 14/ 22 1013.9
MICHIGAN CITY              49     100/ 11/ 13   N/A
$$

ILZ025>027-034>036-040-047-049-050-058-095>099-260800-
WEST-CENTRAL ILLINOIS

CITY           SKY/WX    TMP DP  RH WIND       PRES   REMARKS
QUINCY         CLOUDY    55  54  96 S12       29.78S
GALESBURG*     CLOUDY    57  56  99 SE6       29.80F
MACOMB*        MOCLDY    55  54  97 S7        29.82S
JACKSONVILLE*  CLOUDY    53  51  93 S9        29.82S
PITTSFIELD*    CLOUDY    54  52  94 S9        29.82R
$$

ILZ028>032-037-038-041>044-048-051>054-059>061-260800-
CENTRAL ILLINOIS

CITY           SKY/WX    TMP DP  RH WIND       PRES   REMARKS
PONTIAC        CLOUDY    56  56  98 SE10      29.87S
BLOOMINGTON    CLOUDY    56  54  93 S13       29.85F
DECATUR        CLOUDY    57  52  83 S8        29.85S
PEORIA         CLOUDY    58  56  93 S7        29.82F
LACON*         CLOUDY    53  53 100 E6        29.83S FOG
LINCOLN*       CLOUDY    57  57  98 S6        29.83F
SPRINGFIELD    CLOUDY    56  54  93 S9        29.83S
TAYLORVILLE    CLOUDY    55  54  94 S9        29.84S
$$

ILZ033-039-045-046-055>057-062-063-260800-
EAST-CENTRAL ILLINOIS

CITY           SKY/WX    TMP DP  RH WIND       PRES   REMARKS
CHAMPAIGN      CLOUDY    57  52  83 SE10      29.87S
RANTOUL*       CLOUDY    59  56  91 SE12      29.87F
MATTOON        CLOUDY    59  54  83 S8        29.86S
PARIS*         CLOUDY    58  57  96 SE8       29.90S
$$

ILZ079-100>102-260800-
SOUTHWEST ILLINOIS

CITY           SKY/WX    TMP DP  RH WIND       PRES   REMARKS
ALTON          CLOUDY    54  50  87 SW10      29.86S
BELLEVILLE     PTCLDY    55  55 100 SW9       29.85S
CAHOKIA*       CLOUDY    56  50  80 SW5       29.86S
SPARTA*        CLOUDY    56  53  91 S6        29.88S
$$

ILZ064>066-069>071-074>076-080>082-084>086-088>090-092>094-260800-
SOUTH-CENTRAL ILLINOIS

CITY           SKY/WX    TMP DP  RH WIND       PRES   REMARKS
CARBONDALE     MOCLDY    55  55 100 S8        29.88S
CAIRO*         CLOUDY    56  54  95 S7        29.90S
EFFINGHAM*     MOCLDY    58  56  90 SE7       29.88F
MARION         CLOUDY    57  57 100 S7        29.90S
MT. VERNON     CLOUDY    57  55  93 S9        29.87F
CENTRALIA*     PTCLDY    56  55  98 S7        29.86F
SALEM*         MOCLDY    59  56  89 S8        29.87S
METROPOLIS*    LGT RAIN  57  55  93 S8        29.91S
$$

ILZ067-068-072-073-078-083-087-091-260800-
SOUTHEAST ILLINOIS

CITY           SKY/WX    TMP DP  RH WIND       PRES   REMARKS
LAWRENCEVILLE  CLOUDY    60  58  92 S13       29.90F
FLORA*         LGT RAIN  58  55  89 S9        29.88F
FAIRFIELD*     LGT RAIN  58  56  92 S6        29.87F
HARRISBURG*    LGT RAIN  57  55  95 S6        29.90S
ROBINSON*      CLOUDY    59  57  92 S15       29.90F
CARMI*         CLOUDY    57  55  91 S8        29.90F
$$

ABBREVIATIONS USED IN REMARKS
   TC - TEMPERATURE IN CELSIUS
  WCI - WIND CHILL INDEX
   HX - HEAT INDEX
  VSB - VISIBILITY
$$




USA.gov is the U.S. government's official web portal to all federal, state and local government web resources and services.